Newark, NJ

12:40 PM EDT on September 26, 2017 (GMT -0400)
Newark International

Weather History for KEWR - December, 2012

Change the Weather History Date:

Thursday, December 27, 2012

  Actual Average Record
Temperature  
Mean Temperature 35 °F 33 °F  
Max Temperature 40 °F 40 °F 63 °F (1949)
Min Temperature 30 °F 27 °F 3 °F (1948)
Degree Days  
Heating Degree Days 30 32  
Month to date heating degree days 603 753  
Since 1 July heating degree days 1477 1621  
Cooling Degree Days 0 0  
Month to date cooling degree days 0 0  
Year to date cooling degree days 1450 1192  
Moisture  
Dew Point 32 °F    
Average Humidity 76    
Maximum Humidity 93    
Minimum Humidity 59    
Precipitation  
Precipitation 0.90 in 0.12 in 1.21 in (2011)
Month to date precipitation 4.84 3.37  
Year to date precipitation 36.13 45.81  
Snow  
Snow 0.00 in 0.30 in 6.50 in (2010)
Month to date snowfall 0.4 4.4  
Since 1 July snowfall 7.0 4.8  
Snow Depth 0.00 in    
Sea Level Pressure  
Sea Level Pressure 29.49 in    
Wind  
Wind Speed 22 mph (NNW)    
Max Wind Speed 35 mph    
Max Gust Speed 44 mph    
Visibility 8 miles    
Events Rain , Thunderstorm    
T = Trace of Precipitation, MM = Missing Value Source: NWS Daily Summary

Daily Weather History Graph

Daily Weather History Graph

Search for Another Location

Airport or City:

Trip Planner

Search our weather history database for the weather conditions in past years. The results will help you decide how hot, cold, wet, or windy it might be!

Date:

Astronomy

Dec. 27, 2012 Rise Set
Actual Time 7:19 AM EST 4:36 PM EST
Civil Twilight 6:48 AM EST 5:07 PM EST
Nautical Twilight 6:14 AM EST 5:41 PM EST
Astronomical Twilight 5:41 AM EST 6:15 PM EST
Moon 4:17 PM EST (12/27) 6:28 AM EST (12/27)
Length of Visible Light 10h 18m
Length of Day
9h 16m
Full, 100% of the Moon is Illuminated
Dec 27
Full
Dec 28
Full
Jan 4
Last Quarter
Jan 11
New
Jan 18
First Quarter

Hourly Weather History & Observations

Time (EST) Temp. Windchill Dew Point Humidity Pressure Visibility Wind Dir Wind Speed Gust Speed Precip Events Conditions
12:51 AM 39.9 °F 29.0 °F 37.9 °F 93% 29.44 in 4.0 mi NNE 26.5 mph 36.8 mph 0.22 in Rain Light Rain
1:16 AM 39.2 °F 29.0 °F 37.4 °F 93% 29.45 in 4.0 mi North 21.9 mph 34.5 mph 0.04 in Rain , Thunderstorm Thunderstorms and Rain
1:51 AM 39.9 °F 27.8 °F 37.9 °F 93% 29.41 in 4.0 mi NE 33.4 mph 43.7 mph 0.33 in Rain , Thunderstorm Heavy Thunderstorms and Rain
1:58 AM 39.2 °F 27.2 °F 37.4 °F 93% 29.39 in 1.5 mi NE 31.1 mph 41.4 mph 0.05 in Rain , Thunderstorm Heavy Thunderstorms and Rain
2:47 AM 39.2 °F 29.0 °F 37.4 °F 93% 29.35 in 4.0 mi NNE 21.9 mph 39.1 mph 0.35 in Rain , Thunderstorm Thunderstorms and Rain
2:51 AM 39.9 °F 29.2 °F 37.9 °F 93% 29.35 in 4.0 mi NNE 25.3 mph 38.0 mph 0.37 in Rain , Thunderstorm Thunderstorms and Rain
3:19 AM 39.2 °F 29.6 °F 37.4 °F 93% 29.35 in 7.0 mi NNE 19.6 mph 31.1 mph 0.01 in Rain Light Rain
3:51 AM 39.0 °F 28.5 °F 37.9 °F 96% 29.34 in 9.0 mi NNE 23.0 mph 29.9 mph 0.02 in Rain Light Rain
4:51 AM 39.0 °F 28.3 °F 37.0 °F 93% 29.30 in 9.0 mi NNE 24.2 mph 33.4 mph 0.00 in   Overcast
5:21 AM 39.2 °F 28.7 °F 37.4 °F 93% 29.29 in 10.0 mi NNE 23.0 mph 28.8 mph N/A   Overcast
5:46 AM 39.2 °F 29.3 °F 37.4 °F 93% 29.29 in 10.0 mi North 20.7 mph - N/A   Overcast
5:51 AM 39.0 °F 29.9 °F 37.0 °F 93% 29.29 in 10.0 mi North 17.3 mph - N/A   Overcast
6:51 AM 39.0 °F 29.9 °F 36.0 °F 89% 29.31 in 10.0 mi North 17.3 mph 25.3 mph N/A   Overcast
7:51 AM 39.0 °F 30.6 °F 36.0 °F 89% 29.34 in 9.0 mi NW 15.0 mph - 0.01 in Rain Light Rain
8:47 AM 37.4 °F 28.2 °F 35.6 °F 93% 29.38 in 5.0 mi NW 16.1 mph - 0.00 in Rain Light Rain
8:51 AM 37.9 °F 28.5 °F 35.1 °F 89% 29.38 in 5.0 mi NW 17.3 mph 27.6 mph 0.00 in Rain Light Rain
9:51 AM 37.9 °F 27.9 °F 36.0 °F 93% 29.43 in 4.0 mi WNW 19.6 mph 25.3 mph 0.00 in   Light Drizzle
9:58 AM 37.4 °F 27.2 °F 35.6 °F 93% 29.43 in 6.0 mi NW 19.6 mph 26.5 mph 0.00 in Rain Light Rain
10:38 AM 37.4 °F 27.8 °F 33.8 °F 87% 29.46 in 10.0 mi WNW 17.3 mph 24.2 mph 0.00 in Rain Light Rain
10:51 AM 37.9 °F 27.6 °F 34.0 °F 86% 29.46 in 10.0 mi WNW 20.7 mph 27.6 mph 0.00 in   Overcast
11:09 AM 39.2 °F 30.8 °F 33.8 °F 81% 29.46 in 10.0 mi WNW 15.0 mph 24.2 mph N/A   Overcast
11:51 AM 39.9 °F 30.5 °F 34.0 °F 79% 29.46 in 10.0 mi WNW 19.6 mph 24.2 mph N/A   Mostly Cloudy
12:51 PM 39.9 °F 30.2 °F 32.0 °F 73% 29.48 in 10.0 mi WNW 20.7 mph 28.8 mph N/A   Mostly Cloudy
12:57 PM 39.2 °F 28.5 °F 32.0 °F 75% 29.49 in 10.0 mi WNW 24.2 mph 29.9 mph N/A   Mostly Cloudy
1:47 PM 39.2 °F 28.7 °F 28.4 °F 65% 29.50 in 10.0 mi WNW 23.0 mph 34.5 mph N/A   Mostly Cloudy
1:51 PM 39.0 °F 27.2 °F 28.0 °F 65% 29.51 in 10.0 mi WNW 29.9 mph 36.8 mph N/A   Mostly Cloudy
2:51 PM 39.0 °F 29.3 °F 27.0 °F 62% 29.53 in 10.0 mi WNW 19.6 mph 32.2 mph N/A   Mostly Cloudy
3:51 PM 37.0 °F 25.1 °F 26.1 °F 65% 29.58 in 10.0 mi WNW 26.5 mph 33.4 mph N/A   Mostly Cloudy
4:51 PM 36.0 °F 23.9 °F 24.1 °F 62% 29.62 in 10.0 mi WNW 25.3 mph 34.5 mph N/A   Mostly Cloudy
5:51 PM 35.1 °F 23.8 °F 24.1 °F 64% 29.68 in 10.0 mi WNW 20.7 mph 36.8 mph N/A   Mostly Cloudy
6:51 PM 34.0 °F 21.8 °F 21.9 °F 61% 29.72 in 10.0 mi WNW 23.0 mph 39.1 mph N/A   Mostly Cloudy
7:51 PM 32.0 °F 18.9 °F 21.0 °F 64% 29.75 in 10.0 mi WNW 24.2 mph 32.2 mph N/A   Scattered Clouds
8:51 PM 30.9 °F 18.7 °F 19.9 °F 64% 29.78 in 10.0 mi WNW 19.6 mph 34.5 mph N/A   Scattered Clouds
9:51 PM 30.9 °F 17.8 °F 19.9 °F 64% 29.81 in 10.0 mi WNW 23.0 mph 31.1 mph N/A   Scattered Clouds
10:51 PM 30.9 °F 19.1 °F 19.9 °F 64% 29.84 in 10.0 mi WNW 18.4 mph 32.2 mph N/A   Scattered Clouds
11:51 PM 30.0 °F 20.5 °F 19.0 °F 64% 29.86 in 10.0 mi WNW 11.5 mph 25.3 mph N/A   Scattered Clouds